SCP
0 0 0 0 0 0 0 0 0 0 0 0 0 0 0 0 0 0 0 0 0 0 0 0 0 0 0 0 0 0 0 0 0 0 0 0 0 0 1 1 1 1 1 1
0 0 0 0 0 0 0 0 0 0 0 0 0 0 0 0 0 0 0 0 0 0 0 0 0 0 0 0 0 0 0 0 0 0 0 0 0 0 1 1 1 1 1 1
0 0 0 0 0 0 0 0 0 0 0 0 0 0 0 0 0 0 0 0 0 0 0 0 0 0 0 0 0 0 0 0 0 0 0 0 0 0 0 1 1 1 1 1
0 0 0 0 0 0 0 0 0 0 0 0 0 0 0 0 0 0 0 0 0 0 0 0 0 0 0 0 0 0 0 0 0 0 0 0 0 0 0 0 1 1 1 1
0 0 0 0 0 0 0 0 0 0 0 0 0 0 0 0 0 0 0 0 0 0 0 0 0 0 0 0 0 0 0 0 0 0 0 0 0 0 0 0 0 1 1 1
0 0 0 0 0 0 0 0 0 0 0 0 0 0 0 0 0 0 0 0 0 0 0 0 0 0 0 0 0 0 0 0 0 0 0 0 0 0 0 0 0 1 1 1
0 0 0 0 0 0 0 0 0 0 0 0 0 0 0 0 0 0 0 0 0 0 0 0 0 0 0 0 0 0 0 0 0 0 0 0 0 0 0 0 0 0 0 0
0 0 0 0 0 0 0 0 0 0 0 0 0 0 0 0 0 0 0 0 0 0 0 0 0 0 0 0 0 0 0 0 0 0 0 0 0 0 0 0 0 0 0 0
0 0 0 0 0 0 0 0 0 0 0 0 0 0 0 0 0 0 0 0 0 0 0 0 0 0 0 0 0 0 0 0 0 0 0 0 0 0 0 0 0 0 0 0
0 0 0 0 0 0 -0 0 0 0 0 0 0 0 0 0 0 0 0 0 0 0 0 0 0 0 0 0 0 0 0 0 0 0 0 0 0 0 0 0 0 0 0 0
0 0 0 0 0 0 0 0 0 0 0 0 0 0 0 0 0 0 0 0 0 0 0 0 0 0 0 0 0 0 0 0 0 0 0 0 0 0 0 0 0 0 0 0
0 0 0 0 0 0 0 0 0 0 0 0 0 0 0 0 0 0 0 0 0 0 0 0 0 0 0 0 0 0 0 0 0 0 0 0 0 0 0 0 0 0 0 0
0 0 0 0 0 0 0 0 0 0 0 0 0 0 0 0 0 0 0 0 0 0 0 0 0 0 0 0 0 0 0 0 0 0 0 0 0 0 0 0 0 0 0 0
0 0 0 0 0 0 0 0 0 0 0 0 0 0 0 0 0 0 0 0 0 0 0 0 0 0 0 0 0 0 0 0 0 0 0 0 0 0 0 0 0 0 0 0
0 0 0 0 0 0 0 0 0 0 0 0 0 0 0 0 0 0 0 0 0 0 0 0 0 0 0 0 0 0 0 0 0 0 0 0 0 0 0 0 0 0 0 0
0 0 0 0 0 0 0 0 0 0 0 0 0 0 0 0 0 0 0 0 0 0 0 0 0 0 0 0 0 0 0 0 0 0 0 0 0 0 0 0 0 0 0 0
0 0 0 0 0 0 0 0 0 0 0 0 0 0 0 0 0 0 0 0 0 0 0 0 0 0 0 0 0 0 0 0 0 0 0 0 0 0 0 0 0 0 0 0
0 0 0 0 0 0 0 0 0 0 0 0 0 0 0 0 0 0 0 0 0 0 0 0 0 0 0 0 0 0 0 0 0 0 0 0 0 0 0 0 0 0 0 0
0 0 0 0 0 0 0 0 0 0 0 0 0 0 0 0 0 0 0 0 0 0 0 0 0 0 0 0 0 0 0 0 0 0 0 0 0 0 0 0 0 0 0 0
0 0 0 0 0 0 0 0 0 0 0 0 0 0 0 0 0 0 0 0 0 0 0 0 0 0 0 0 0 0 0 0 0 0 0 0 0 0 0 0 0 0 0 0
0 0 0 0 0 0 0 0 0 0 0 0 0 0 0 0 0 0 0 0 0 0 0 0 0 0 0 0 0 0 0 0 0 0 0 0 0 0 0 0 0 0 0 0
0 0 0 0 0 0 0 0 0 0 0 0 0 0 0 0 0 0 0 0 0 0 0 0 0 0 0 0 0 0 0 0 0 0 0 0 0 0 0 0 0 0 0 0
0 0 0 0 0 0 0 0 0 0 0 0 0 0 0 0 0 0 0 0 0 0 0 0 0 0 0 0 0 0 0 0 0 0 0 0 0 0 0 0 0 0 0 0
0 0 0 0 0 0 0 0 0 0 0 0 0 0 0 0 0 0 0 0 0 0 0 0 0 0 0 0 0 0 0 0 0 0 0 0 0 0 0 0 0 0 0 0
0 0 0 0 0 0 0 0 0 0 0 0 0 0 0 0 0 0 0 0 0 0 0 0 0 0 0 0 0 0 0 0 0 0 0 0 0 0 0 0 0 0 0 0
0 0 0 0 0 0 0 0 0 0 0 0 0 0 0 0 0 0 0 0 0 0 0 0 0 0 0 0 0 0 0 0 0 0 0 0 0 0 0 0 0 0 0 0
Wind_Speed
1 2 5 8 8 9 10 9 8 6 5 3 3 4 5 4 5 7 8 9 10 10 11 10 10 9 9 9 10 9 8 7 5 3 3 3 3 3 3 4 5 6 6 6
4 4 6 5 5 8 9 9 7 5 4 2 2 4 6 5 5 6 8 9 10 11 12 11 11 10 10 9 9 10 8 8 7 4 4 3 4 4 4 3 5 6 7 6
5 7 3 5 6 9 10 6 8 6 2 4 4 5 7 6 5 5 7 8 10 11 12 12 11 10 10 9 10 10 9 9 8 7 4 4 4 4 4 4 4 5 6 7
5 4 3 5 5 8 8 7 6 7 6 5 5 3 8 5 4 6 8 8 9 9 10 9 10 10 10 10 10 10 10 10 8 7 5 6 5 5 5 4 4 4 5 6
6 4 6 6 7 7 7 6 7 7 8 8 6 3 7 4 5 8 8 8 9 9 9 9 10 10 10 10 9 9 9 9 9 8 7 6 5 5 4 5 5 5 4 5
7 4 5 6 3 3 6 8 9 8 7 7 3 2 6 5 7 8 8 8 8 8 8 8 9 8 8 8 8 8 8 8 8 8 7 6 6 6 6 6 5 4 3 3
8 6 4 4 7 4 6 7 5 4 5 1 3 2 7 7 6 6 7 7 7 7 8 8 8 8 8 8 8 8 8 8 8 8 7 7 6 6 6 6 5 4 3 2
6 7 5 5 6 6 7 6 6 6 4 2 4 3 7 5 4 4 5 5 6 7 6 7 7 7 7 8 7 7 8 8 8 8 7 7 7 5 4 5 4 3 2 2
5 8 5 3 4 5 8 6 5 6 9 5 5 7 8 5 3 4 5 6 7 7 6 6 6 6 6 6 6 6 6 7 7 8 8 7 7 6 6 6 5 4 3 2
6 5 5 3 5 4 2 5 5 5 6 5 1 4 4 3 4 5 5 6 6 5 6 5 5 5 5 5 5 5 5 6 6 6 6 6 6 6 5 5 6 6 6 5
7 3 7 5 1 5 5 3 4 5 2 3 4 3 5 4 3 3 4 5 5 5 4 4 4 4 4 5 5 5 6 6 6 6 6 6 6 6 6 5 6 6 6 6
3 6 3 6 6 2 2 5 6 5 5 2 2 3 5 3 1 2 4 5 4 4 3 4 4 4 4 5 5 5 6 6 5 6 6 6 7 7 7 7 7 6 6 6
5 6 1 6 5 5 3 1 3 5 6 3 2 4 5 3 2 2 3 3 3 3 3 3 3 3 4 4 4 5 5 5 5 6 6 7 7 7 7 7 7 7 7 7
5 5 3 5 5 2 0 1 2 5 5 5 2 3 5 4 2 1 1 2 2 3 3 3 3 3 3 3 3 4 4 4 5 5 6 7 7 7 7 7 7 8 8 8
6 5 2 2 1 2 4 4 4 6 7 6 5 2 1 4 3 0 1 1 3 4 4 4 3 3 3 3 4 4 4 4 5 5 6 6 6 7 7 7 7 7 8 9
5 5 3 6 6 5 8 9 8 7 7 7 5 3 3 5 3 2 1 2 3 3 4 4 4 4 4 3 4 4 4 4 5 5 5 5 6 6 7 7 7 7 7 7
4 5 5 5 6 6 8 7 9 7 6 6 6 1 6 4 4 2 1 1 2 3 3 4 4 3 2 3 3 3 3 4 5 5 5 5 6 6 6 7 7 7 6 6
4 4 3 7 5 6 5 4 1 5 7 6 5 2 4 4 3 2 2 1 1 3 3 3 3 2 2 4 3 2 3 5 5 5 5 5 5 6 6 5 6 6 5 5
5 4 4 4 6 5 7 4 3 3 6 8 8 6 6 5 4 6 6 3 1 2 2 2 2 2 3 4 3 3 4 5 5 5 5 5 5 5 6 6 5 4 4 4
4 4 4 5 5 4 7 8 4 2 6 7 9 9 8 7 5 4 7 5 2 2 2 2 3 3 3 3 2 2 4 6 5 5 5 5 4 4 5 5 5 4 3 4
5 5 5 5 6 2 8 7 5 2 4 4 6 8 10 9 3 5 8 6 3 3 1 1 2 2 2 2 2 3 5 5 5 4 3 4 4 4 4 4 4 4 4 4
4 3 4 4 4 0 8 6 5 3 2 1 4 7 8 7 5 6 6 5 4 3 3 1 2 1 1 1 2 3 5 4 3 2 2 2 3 4 4 3 4 4 5 5
3 3 3 2 2 5 7 7 5 4 4 2 4 5 7 7 7 7 6 5 4 3 3 2 1 1 1 2 2 2 4 3 2 1 1 1 2 2 3 4 5 5 5 4
3 2 2 4 4 4 9 10 7 5 5 3 3 6 7 7 7 7 6 5 5 4 3 3 3 3 2 3 2 2 3 2 2 1 1 0 2 3 3 3 3 4 4 5
3 1 3 6 8 5 4 7 8 7 6 6 5 6 7 8 8 8 6 6 5 5 4 4 3 1 1 2 3 3 3 2 3 3 2 2 3 2 2 3 2 3 3 2
7 7 6 5 5 5 4 0 5 7 8 8 7 7 8 8 8 8 7 6 6 5 5 5 4 3 3 3 3 4 3 2 4 1 2 1 2 2 1 2 3 3 2 3
Wind_Direction
251 295 37 21 3 330 319 311 308 95 95 52 98 125 118 73 38 19 11 7 9 7 0 8 358 355 351 349 343 336 327 324 319 309 300 298 294 286 264 245 235 229 230 224
196 86 44 358 328 307 299 304 315 90 87 1 194 160 124 97 64 34 14 6 9 2 356 1 356 356 352 348 342 332 332 328 324 313 303 288 286 280 266 252 242 230 229 219
52 61 16 317 333 338 317 347 347 340 347 263 249 195 145 129 89 51 28 17 11 0 355 354 352 354 348 348 345 338 333 329 325 320 310 303 297 288 283 264 250 234 226 222
80 63 332 312 13 355 333 27 333 303 281 245 217 250 138 134 83 41 26 19 10 2 356 352 354 355 352 351 347 340 339 336 331 327 318 310 296 291 292 294 281 271 246 227
96 45 354 352 21 343 334 333 292 275 266 272 241 259 126 113 36 25 17 13 11 3 357 358 358 354 353 351 348 343 344 343 341 335 324 314 306 300 298 299 289 277 266 249
94 86 32 359 322 268 287 271 251 243 253 256 248 283 103 59 24 9 8 12 9 1 359 1 357 355 353 353 352 348 348 346 343 341 338 333 324 319 316 311 304 300 278 259
162 139 108 353 313 225 271 301 284 229 212 173 61 55 82 66 36 13 6 9 8 7 3 1 1 358 356 357 358 355 357 354 351 349 349 346 338 328 320 311 303 300 292 283
207 130 79 37 7 334 316 310 326 321 334 127 153 83 97 86 67 29 14 14 8 8 7 2 0 359 355 358 359 359 359 357 357 354 351 349 351 342 327 320 318 323 309 292
345 96 105 59 357 332 327 351 351 301 292 288 119 115 131 132 82 34 15 15 11 6 5 3 360 1 359 357 355 359 0 1 358 356 351 349 352 351 347 345 344 340 331 330
325 106 115 125 236 194 326 319 304 297 336 326 70 97 92 82 33 19 12 11 9 3 2 5 4 7 359 352 346 4 8 6 1 358 354 352 354 352 351 358 1 358 358 4
308 249 150 185 36 11 337 311 331 299 292 328 338 61 74 64 39 7 7 12 4 3 1 6 8 10 3 1 3 18 15 14 5 1 357 357 4 3 8 10 7 5 7 15
342 304 156 115 92 65 348 355 338 329 342 315 287 98 99 110 89 22 14 9 3 4 7 20 17 12 7 7 8 18 18 16 10 5 5 11 18 17 19 20 16 11 16 17
349 292 248 146 152 185 194 72 323 302 283 277 323 110 143 144 119 62 27 1 355 1 16 33 16 12 5 6 10 15 19 13 20 14 11 16 21 20 21 20 18 17 21 23
312 276 352 11 33 28 182 181 251 287 295 323 35 97 159 154 139 88 23 342 352 14 17 32 19 15 5 17 22 17 18 18 33 30 22 18 20 20 21 20 21 21 21 27
267 291 40 59 37 299 287 269 249 260 291 312 3 356 85 124 126 153 261 334 3 17 18 24 28 28 6 34 38 27 26 30 38 39 30 19 20 19 20 22 25 27 25 28
257 296 273 241 205 247 261 251 239 249 263 276 287 278 127 122 147 221 267 18 1 20 21 16 27 38 5 35 45 32 32 38 46 46 36 22 23 20 19 21 22 25 26 24
232 281 302 298 160 255 261 232 221 223 230 244 261 256 134 165 193 222 298 320 343 28 27 18 20 38 358 47 51 42 41 46 47 45 43 32 27 25 25 22 21 22 24 19
304 297 293 287 265 273 91 81 151 234 241 231 237 166 162 188 181 207 230 264 338 37 31 21 7 6 18 56 45 48 74 65 50 37 41 41 33 23 20 23 24 21 17 13
315 314 292 294 310 287 132 135 155 233 262 228 215 200 180 180 202 222 194 178 64 47 29 20 350 344 36 51 36 21 61 75 59 37 36 43 37 26 17 17 19 15 8 9
248 277 280 299 298 326 101 113 124 241 268 204 190 187 179 185 229 209 154 147 144 99 45 2 329 9 33 39 31 10 62 71 61 42 35 40 44 38 24 13 7 6 9 8
192 211 232 263 278 324 112 126 149 248 18 102 171 178 179 197 211 113 130 140 143 134 121 308 315 45 35 15 358 42 64 69 67 54 40 36 35 53 46 10 358 7 11 13
238 224 214 230 257 169 139 159 207 269 58 170 184 181 182 191 157 134 143 146 159 164 161 224 309 44 86 36 352 76 85 86 87 77 58 57 51 35 38 22 8 15 14 17
227 302 335 308 350 124 184 210 237 285 296 244 182 181 180 185 173 164 167 169 175 187 168 175 237 275 210 126 47 67 108 115 120 107 92 95 101 90 46 27 22 18 16 17
186 147 278 290 282 229 203 216 238 248 263 270 194 181 182 188 182 176 180 180 180 195 179 177 214 231 196 124 128 113 124 154 178 176 190 141 84 76 75 44 30 38 23 16
343 161 244 267 276 265 207 205 222 230 235 241 216 193 187 189 190 185 189 192 187 185 177 189 222 222 199 177 167 148 153 202 220 203 180 144 115 100 95 93 49 49 73 58
276 252 234 258 331 352 0 121 211 226 226 227 218 204 192 191 196 194 195 191 188 188 188 190 189 199 242 210 169 156 162 229 265 235 118 114 136 144 151 148 133 58 82 102